SL-16 DEB, 22618

Orbit data source: Space-Track

SL-16 DEB, 22618 is space debris in LEO originally from a launch on Fri, 26 Mar 1993 UTC launched from the Tyuratam Missile And Space Complex (TTMTR). Debris objects in space refer to the collection of defunct objects orbiting the Earth. Examples of debris include non-operational satellites, rocket bodies, and fragments generated from explosions, collisions, or faulty payload assembly.

Loading next visibility...
Identifier
22618, 1993-016AC
Orbit
LEO
Last TLE update
16 hours ago
Origin
Manufacturer
Unknown
Mission
Spacecraft
Bus & Motor
Unknown
Mass
Unknown
Launch date (UTC)
1993-03-26 (32 years ago)
Launch vehicle
Unknown
Launch site
Tyuratam Missile And Space Complex (TTMTR)
Object type
Payload
Rocket body
Debris
Shape & HBR
Unknown
Radar Cross Section
Small (<0.1 m²)

Expand to show TLE details & history

TLE from 16 hours ago
0 SL-16 DEB
1 22618U 93016AC  25181.71115604  .00000091  00000-0  11122-3 0  9990
2 22618  70.9931 281.8358 0154777  87.3723 274.5089 13.83336766625875
Epoch: 2025-06-30T17:04Z
TLE epoch observation values (Epoch: 2025-06-30T17:04:03.881Z)
Latitude
-0.00004°
Longitude
106.80257°
Altitude
947.268 km
Speed
7.382 km/s
True Right ascension
18h 47m 20s
True Declination
0° 00' 00"
Sunlit
Object was in full shadow at epoch
Visualization orbit readout
Latitude
17.67028°
Longitude
111.76507°
Altitude
909.319 km
Speed
7.421 km/s
Apparent Right ascension
16h 47m 19s
Apparent Declination
-33° 24' 42"
Sunlit
Object is in full shadow
Visualization observer readout
Local Sidereal Time
20:24:43
Azimuth
222.722° SW
Elevation
1.135°
Doppler factor
1
Orbital elements
Apogee altitude
1,063.455 km
Perigee altitude
836.608 km
Semi-major axis
7,328.168 km
Eccentricity
0.01548
Inclination
70.9931°
RAAN
281.8358°
Arg. of periapsis
87.3723°
True anomaly
Unknown
Mean anomaly
274.5089°
Eccentric anomaly
Unknown
Mean motion
3.45979 °/min
Orbital period
104.05 mins
BSTAR
0.00011122
Loading maneuver chart data...
Loading SW <> Apogee altitude chart data...
Loading historical data...
Loading historical data...
Loading historical data...
Loading historical data...
Loading historical data...
Loading historical data...
Loading historical data...

SL-16 DEB Visibility forecast

Observer location: undefined°, undefined°

Span
Click to sort rows by Start time (UTC) header in descending order
Start Az.
Max El. time (UTC)
Max El. Az.
Max El.
End time (UTC)
End Az.
10 mins2025-07-01 08:49:32.741Z231.981° WSW2025-07-01 08:54:32.741Z303.396° NW33.214°2025-07-01 08:59:32.741Z8.811° NNE
5 mins2025-07-01 16:11:32.741Z24.823° NE2025-07-01 16:13:32.741Z48.671° ENE15.902°2025-07-01 16:16:32.741Z82.872° E
10 mins2025-07-01 17:56:32.741Z332.88° NNW2025-07-01 18:00:32.741Z276.234° WNW44.241°2025-07-01 18:06:32.741Z163.931° S
9 mins2025-07-02 07:22:32.741Z173.006° S2025-07-02 07:26:32.741Z101.931° ESE36.677°2025-07-02 07:31:32.741Z35.357° NE
|